• In United Kingdom
  • List of Countries
  • For 7 days
  • Water Temperature
  • Satellite Maps
  • Weather Map
  • Weather Widgets
  • user-avatar
    Login

    Hourly Weather Rozhnyatov

    Today, 21 May, Monday

    Time Temperature Precipitation Wind Pressure Humidity
    00:00 +13°C° 0 mm 1 mps 731 mmHg 97%
    01:00 +11°C° 0 mm 0 mps 731 mmHg 99%
    02:00 +11°C° 0 mm 0 mps 731 mmHg 100%
    03:00 +10°C° 0 mm 0 mps 731 mmHg 100%
    04:00 +10°C° 0 mm 1 mps 731 mmHg 100%
    05:00 +9°C° 0 mm 0 mps 731 mmHg 100%
    06:00 +9°C° 0 mm 0 mps 731 mmHg 100%
    07:00 +9°C° 0 mm 0 mps 731 mmHg 100%
    08:00 +10°C° 0 mm 0 mps 731 mmHg 100%
    09:00 +11°C° 0 mm 0 mps 731 mmHg 99%
    10:00 +15°C° 0 mm 2 mps 732 mmHg 96%
    11:00 +15°C° 0 mm 4 mps 732 mmHg 86%
    12:00 +17°C° 0 mm 3 mps 731 mmHg 81%
    13:00 +15°C° 0 mm 4 mps 731 mmHg 84%
    14:00 +16°C° 0 mm 5 mps 731 mmHg 86%
    15:00 +15°C° 0.3 mm 5 mps 730 mmHg 84%
    16:00 +17°C° 0.1 mm 4 mps 730 mmHg 80%
    17:00 +17°C° 0 mm 3 mps 730 mmHg 81%
    18:00 +17°C° 0 mm 4 mps 729 mmHg 81%
    19:00 +15°C° 0 mm 4 mps 729 mmHg 85%
    20:00 +15°C° 0 mm 2 mps 729 mmHg 91%
    21:00 +14°C° 0 mm 2 mps 729 mmHg 94%
    22:00 +13°C° 0 mm 2 mps 729 mmHg 97%
    23:00 +13°C° 0 mm 2 mps 728 mmHg 98%

    Tomorrow, 22 May, Tuesday

    Time Temperature Precipitation Wind Pressure Humidity
    00:00 +12°C° 0 mm 2 mps 728 mmHg 99%
    01:00 +12°C° 0 mm 2 mps 728 mmHg 100%
    02:00 +12°C° 0 mm 2 mps 728 mmHg 99%
    03:00 +12°C° 0 mm 2 mps 727 mmHg 99%
    04:00 +12°C° 0 mm 2 mps 727 mmHg 99%
    05:00 +10°C° 0 mm 2 mps 727 mmHg 99%
    06:00 +12°C° 0 mm 2 mps 727 mmHg 98%
    07:00 +13°C° 0 mm 2 mps 728 mmHg 96%
    08:00 +15°C° 0 mm 2 mps 728 mmHg 93%
    09:00 +17°C° 0 mm 3 mps 728 mmHg 92%
    10:00 +19°C° 0 mm 4 mps 728 mmHg 90%
    11:00 +19°C° 0 mm 4 mps 728 mmHg 89%
    12:00 +20°C° 0 mm 4 mps 728 mmHg 91%
    13:00 +19°C° 1 mm 6 mps 728 mmHg 80%
    14:00 +19°C° 0 mm 5 mps 728 mmHg 81%
    15:00 +17°C° 0 mm 6 mps 727 mmHg 94%
    16:00 +18°C° 0 mm 4 mps 727 mmHg 95%
    17:00 +19°C° 0.2 mm 4 mps 727 mmHg 97%
    18:00 +19°C° 1.9 mm 4 mps 727 mmHg 98%
    19:00 +19°C° 5.4 mm 4 mps 726 mmHg 98%
    20:00 +19°C° 0.2 mm 3 mps 726 mmHg 98%
    21:00 +18°C° 0.1 mm 4 mps 727 mmHg 98%
    22:00 +18°C° 0.9 mm 1 mps 727 mmHg 100%
    23:00 +17°C° 2.9 mm 2 mps 727 mmHg 100%

    Day after tomorrow, 23 May, Wednesday

    Time Temperature Precipitation Wind Pressure Humidity
    00:00 +16°C° 0 mm 1 mps 728 mmHg 100%
    01:00 +16°C° 0 mm 1 mps 727 mmHg 100%
    02:00 +16°C° 0 mm 1 mps 727 mmHg 100%
    03:00 +16°C° 0 mm 1 mps 727 mmHg 100%
    04:00 +17°C° 0 mm 2 mps 727 mmHg 93%
    05:00 +16°C° 0 mm 1 mps 727 mmHg 96%
    06:00 +16°C° 0 mm 1 mps 727 mmHg 100%
    07:00 +16°C° 0 mm 0 mps 728 mmHg 98%
    08:00 +19°C° 0 mm 1 mps 728 mmHg 95%
    09:00 +20°C° 0 mm 1 mps 729 mmHg 94%
    10:00 +20°C° 0 mm 2 mps 730 mmHg 93%
    11:00 +20°C° 0 mm 3 mps 729 mmHg 94%
    12:00 +21°C° 0.1 mm 2 mps 729 mmHg 90%
    13:00 +20°C° 4.2 mm 4 mps 729 mmHg 95%
    14:00 +20°C° 2.8 mm 2 mps 729 mmHg 90%
    15:00 +19°C° 1.7 mm 2 mps 728 mmHg 90%
    16:00 +21°C° 0 mm 2 mps 728 mmHg 85%
    17:00 +23°C° 0 mm 1 mps 729 mmHg 85%
    18:00 +21°C° 0.1 mm 3 mps 728 mmHg 92%
    19:00 +20°C° 0.3 mm 1 mps 728 mmHg 97%
    20:00 +20°C° 0 mm 1 mps 728 mmHg 99%
    21:00 +19°C° 0 mm 1 mps 728 mmHg 99%
    22:00 +19°C° 0 mm 1 mps 729 mmHg 99%
    23:00 +16°C° 0 mm 0 mps 729 mmHg 100%

    24 May, Thursday

    Time Temperature Precipitation Wind Pressure Humidity
    00:00 +18°C° 0 mm 1 mps 729 mmHg 100%
    01:00 +16°C° 0 mm 0 mps 728 mmHg 100%
    02:00 +18°C° 0 mm 1 mps 728 mmHg 100%
    03:00 +18°C° 0 mm 1 mps 728 mmHg 100%
    04:00 +16°C° 0 mm 2 mps 728 mmHg 100%
    05:00 +16°C° 0 mm 2 mps 728 mmHg 100%
    06:00 +16°C° 0 mm 1 mps 728 mmHg 100%
    07:00 +16°C° 0 mm 1 mps 729 mmHg 100%
    08:00 +16°C° 0 mm 1 mps 729 mmHg 100%
    09:00 +16°C° 0 mm 1 mps 729 mmHg 100%
    10:00 +16°C° 0 mm 1 mps 730 mmHg 100%
    11:00 +18°C° 0 mm 1 mps 729 mmHg 100%
    12:00 +19°C° 0 mm 1 mps 729 mmHg 99%
    13:00 +18°C° 0 mm 3 mps 729 mmHg 98%
    14:00 +19°C° 0 mm 2 mps 729 mmHg 96%

    25 May, Friday

    Time Temperature Precipitation Wind Pressure Humidity

    26 May, Saturday

    Time Temperature Precipitation Wind Pressure Humidity
    Show more